Regional Weather Roundup
Issued by NWS

Home | Current Version | Previous Version | Graphics & Text | Print | Product List | Glossary Off
Versions: 1 2 3 4 5 6 7 8 9 10 11 12 13 14 15 16 17 18 19 20 21 22 23 24 25 26 27 28 29 30 31 32 33 34 35 36 37 38 39 40 41 42 43 44 45 46 47 48 49 50

000
ASUS43 KMKX 220707
RWRWI

WISCONSIN REGIONAL WEATHER ROUNDUP
NATIONAL WEATHER SERVICE MILWAUKEE/SULLIVAN WI
200 AM CDT FRI MAY 22 2015

NOTE: "FAIR" INDICATES FEW OR NO CLOUDS BELOW 12,000 FEET WITH NO
SIGNIFICANT WEATHER AND/OR OBSTRUCTIONS TO VISIBILITY.

WIZ001-002-006>008-014>016-023>028-220800-
NORTHWEST WISCONSIN

CITY           SKY/WX    TMP DP  RH WIND       PRES   REMARKS
SUPERIOR ARPT  CLEAR     38  35  90 CALM      30.12R
ASHLAND        CLEAR     39  34  82 W5        30.11R
HAYWARD        CLEAR     38  33  82 CALM      30.11R
SIREN          CLEAR     40  35  81 CALM      30.12R
CUMBERLAND     CLEAR     45  37  76 N8        30.11R
RICE LAKE      CLEAR     43  39  85 CALM      30.12R
CHETEK         CLEAR     44  39  82 CALM      30.10R
LADYSMITH      CLEAR     41  39  90 CALM      30.11R
EAU CLAIRE     NOT AVBL
MENOMONIE      CLEAR     51  37  59 CALM      30.09R
NEW RICHMOND   CLEAR     47  36  63 NE3       30.11R
OSCEOLA        CLEAR     43  38  84 CALM      30.14R
$$

WIZ003>005-009-010-017-018-220800-
NORTH CENTRAL WISCONSIN

CITY           SKY/WX    TMP DP  RH WIND       PRES   REMARKS
MANITOWISH WTR CLEAR     33  33  98 CALM      30.09R
ARBOR VITAE    FAIR      37  33  85 CALM      30.09R
WOODRUFF       FAIR      37  33  85 CALM      30.09R
RHINELANDER    CLEAR     39  31  72 E6        30.10R WCI  35
EAGLE RIVER    CLEAR     40  26  59 SE3       30.10R
LAND O LAKES   FAIR      32  30  91 CALM      30.11R
PHILLIPS       CLEAR     35  34  96 CALM      30.09S
TOMAHAWK       CLEAR     32  30  92 CALM      30.09S
MEDFORD        CLEAR     37  35  92 CALM      30.09R
MERRILL        CLEAR     35  33  93 CALM      30.10R
$$

WIZ029-030-035-036-043>047-220800-
CENTRAL WISCONSIN

CITY           SKY/WX    TMP DP  RH WIND       PRES   REMARKS
WAUSAU         CLEAR     41  35  79 CALM      30.08R
MOSINEE        CLEAR     45  36  70 CALM      30.10R
MARSHFIELD     CLEAR     46  32  58 NE3       30.09R
STEVENS POINT  CLEAR     39  35  84 CALM      30.09R
WAUPACA        CLEAR     43  37  80 N3        30.09R
WAUTOMA        NOT AVBL
WISC RAPIDS    CLEAR     42  34  73 CALM      30.10R
CAMP DOUGLAS   NOT AVBL
$$

WIZ011>013-019>022-031-037>040-048>050-220800-
NORTHEAST WISCONSIN

CITY           SKY/WX    TMP DP  RH WIND       PRES   REMARKS
ANTIGO         CLEAR     38  32  81 E5        30.10R WCI  34
SHAWANO        CLEAR     41  37  83 CALM      30.11R
OCONTO         CLEAR     36  36 100 CALM      30.09S
STURGEON BAY   CLEAR     39  28  65 CALM      30.11S
GREEN BAY      CLEAR     42  34  73 N3        30.10R
MANITOWOC      NOT AVBL
APPLETON       CLEAR     45  27  49 E3        30.09R
CLINTONVILLE   CLEAR     37  36  93 CALM      30.10R
OSHKOSH        CLEAR     48  30  49 SE3       30.08R
$$

WIZ032>034-041-042-053>061-220800-
SOUTHWEST WISCONSIN

CITY           SKY/WX    TMP DP  RH WIND       PRES   REMARKS
LA CROSSE      CLEAR     50  42  74 SE3       30.08R
SPARTA         CLEAR     39  38  97 CALM      30.09R
VIROQUA        CLEAR     50  37  62 CALM      30.08R
BOSCOBEL       CLEAR     43  39  86 CALM      30.09R
PRAIRIE DU CHI CLEAR     48  40  74 CALM      30.07S
PLATTEVILLE    CLEAR     50  38  62 N5        30.07R
$$

WIZ056-057-062-063-064-067-068-220800-
SOUTH CENTRAL WISCONSIN

CITY           SKY/WX    TMP DP  RH WIND       PRES   REMARKS
REEDSBURG      CLEAR     50  39  67 CALM      30.08R
BARABOO/DELLS  CLEAR     47  39  74 CALM      30.08R
LONE ROCK      NOT AVBL
MINERAL POINT  CLEAR     54  36  50 N7        30.07R
MADISON        CLEAR     48  36  63 E5        30.07R
MIDDLETON      CLEAR     51  38  61 NE6       30.08R
WATERTOWN      CLEAR     46  34  63 E7        30.07R
MONROE         CLEAR     54  39  58 NW6       30.05R
JANESVILLE     CLEAR     55  43  62 NE12      30.04R
$$

WIZ051-052-058>065-066-070>072-220800-
SOUTHEAST WISCONSIN

CITY           SKY/WX    TMP DP  RH WIND       PRES   REMARKS
MILWAUKEE      CLEAR     47  33  58 N8        30.08R
WAUKESHA       CLEAR     45  32  61 NE3       30.09R
MILWAUKEE/TIMM PTCLDY    46  30  53 NE6       30.08S
RACINE         CLEAR     47  36  65 NE9       30.07R
BURLINGTON     CLEAR     47  37  69 NE6       30.06R
KENOSHA        CLEAR     46  40  79 N7        30.06R
FOND DU LAC    CLEAR     42  31  64 CALM      30.08R
SHEBOYGAN      CLEAR     39  34  82 NW3       30.08S
WEST BEND      PTCLDY    43  34  70 CALM      30.08S
JUNEAU         CLEAR     46  31  55 E6        30.08S
$$

LSZ147-162-220800-
LAKE SUPERIOR

STATION/POSITION TIME  TEMP    WIND        PRES    WAVE
                       AIR SEA DIR/SP/G            HT/PER
                 (UTC) (F)     (DEG/KT/KT) (MB)    (FT/S)
W MID LAKE BUOY  0550   40 36  110/  6/  6   N/A     0
DEVILS ISLAND    0600   46      50/  9/  9   N/A
PORT WING        0600   42     160/  3/  4   N/A
SAXON HARBOR     0640   38     190/  2/  3   N/A
$$

LMZ867-665-643>646-220800-
LAKE MICHIGAN

STATION/POSITION TIME  TEMP    WIND        PRES    WAVE
                       AIR SEA DIR/SP/G            HT/PER
                 (UTC) (F)     (DEG/KT/KT) (MB)    (FT/S)
CHAMBERS ISLAND  0600   43     300/  2/  5   N/A
N MID LAKE BUOY  0550   42 36  290/  6/  8   N/A     1/ 4
NORTHPORT PIER   0500   48      10/  7/  8   N/A
SISTER BAY       0647   44      CALM  /  5   N/A
KEWAUNEE LAKESHO 0600                        N/A
SHEBOYGAN LAKESH 0600           10/  6/  6   N/A
PORT WASHINGTON  0600   50      20/  4/  7   N/A
ATWATER BUOY     0600   46 44  350/ 10/ 12   N/A
MILWAUKEE LAKESH 0600   50      20/ 11/ 14   N/A
S MID LAKE BUOY  0550   42 38  280/  4/  8   N/A     1
KENOSHA   LAKESH 0600   49      10/ 16/ 19   N/A
$$

TC  - TEMPERATURE IN CELSIUS
VSB - VISIBILITY IN STATUTE MILES
WCI - WIND CHILL INDEX
HX  - HEAT INDEX



USA.gov is the U.S. government's official web portal to all federal, state and local government web resources and services.